Time,TemperatureF,DewpointF,PressureIn,WindDirection,WindDirectionDegrees,WindSpeedMPH,WindSpeedGustMPH,Humidity,HourlyPrecipIn,Conditions,Clouds,dailyrainin,SoftwareType,DateUTC
2013-07-07 00:01:00,77.4,73.9,30.10,ESE,112,0.0,0.0,89,0.00,CLR,,0.00,WeatherDisplay:10.37,2013-07-07 04:01:00,
2013-07-07 00:06:00,77.2,73.7,30.10,ENE,68,0.0,0.0,89,0.00,CLR,,0.00,WeatherDisplay:10.37,2013-07-07 04:06:00,
2013-07-07 00:11:00,77.2,73.7,30.10,NW,315,0.0,0.0,89,0.00,CLR,,0.00,WeatherDisplay:10.37,2013-07-07 04:11:00,
2013-07-07 00:16:00,77.2,73.7,30.10,WNW,292,0.0,0.0,89,0.00,CLR,,0.00,WeatherDisplay:10.37,2013-07-07 04:16:00,
2013-07-07 00:21:00,77.0,73.5,30.10,WNW,292,0.0,0.0,89,0.00,CLR,,0.00,WeatherDisplay:10.37,2013-07-07 04:21:00,
2013-07-07 00:26:00,76.8,73.6,30.10,South,180,0.0,0.0,90,0.00,CLR,,0.00,WeatherDisplay:10.37,2013-07-07 04:26:00,
2013-07-07 00:31:00,76.6,73.4,30.10,South,180,0.0,0.0,90,0.00,CLR,,0.00,WeatherDisplay:10.37,2013-07-07 04:31:00,
2013-07-07 00:36:00,76.6,73.4,30.10,WSW,248,0.0,0.0,90,0.00,CLR,,0.00,WeatherDisplay:10.37,2013-07-07 04:36:00,
2013-07-07 00:41:00,76.5,73.3,30.10,WNW,292,0.0,0.0,90,0.00,CLR,,0.00,WeatherDisplay:10.37,2013-07-07 04:41:00,
2013-07-07 00:46:00,76.3,73.5,30.10,WNW,292,0.0,0.0,91,0.00,CLR,,0.00,WeatherDisplay:10.37,2013-07-07 04:46:00,
2013-07-07 00:51:00,76.1,73.3,30.10,WNW,292,0.0,0.0,91,0.00,CLR,,0.00,WeatherDisplay:10.37,2013-07-07 04:51:00,
2013-07-07 00:56:00,75.9,73.4,30.10,WNW,292,0.0,0.0,92,0.00,CLR,,0.00,WeatherDisplay:10.37,2013-07-07 04:56:00,
2013-07-07 01:01:00,75.9,73.7,30.10,West,270,0.0,0.0,93,0.00,CLR,,0.00,WeatherDisplay:10.37,2013-07-07 05:01:00,
2013-07-07 01:06:00,75.7,73.5,30.10,WNW,292,0.0,0.0,93,0.00,CLR,,0.00,WeatherDisplay:10.37,2013-07-07 05:06:00,
2013-07-07 01:11:00,75.7,73.5,30.10,West,270,0.0,0.0,93,0.00,CLR,,0.00,WeatherDisplay:10.37,2013-07-07 05:11:00,
2013-07-07 01:16:00,75.7,73.5,30.10,WNW,292,0.0,0.0,93,0.00,CLR,,0.00,WeatherDisplay:10.37,2013-07-07 05:16:00,
2013-07-07 01:21:00,75.6,73.4,30.10,SE,135,0.0,0.0,93,0.00,CLR,,0.00,WeatherDisplay:10.37,2013-07-07 05:21:00,
2013-07-07 01:26:00,75.6,73.4,30.10,SE,135,0.0,0.0,93,0.00,CLR,,0.00,WeatherDisplay:10.37,2013-07-07 05:26:00,
2013-07-07 01:31:00,75.6,73.8,30.10,SSE,158,0.0,0.0,94,0.00,CLR,,0.00,WeatherDisplay:10.37,2013-07-07 05:31:00,
2013-07-07 01:36:00,75.4,73.6,30.10,SSW,202,0.0,0.0,94,0.00,CLR,,0.00,WeatherDisplay:10.37,2013-07-07 05:36:00,
2013-07-07 01:41:00,75.2,73.4,30.10,NW,315,0.0,0.0,94,0.00,CLR,,0.00,WeatherDisplay:10.37,2013-07-07 05:41:00,
2013-07-07 01:46:00,75.2,73.4,30.10,NW,315,0.0,0.0,94,0.00,CLR,,0.00,WeatherDisplay:10.37,2013-07-07 05:46:00,
2013-07-07 01:51:00,75.2,73.4,30.10,South,180,0.0,0.0,94,0.00,CLR,,0.00,WeatherDisplay:10.37,2013-07-07 05:51:00,
2013-07-07 01:56:00,75.0,73.2,30.10,ENE,68,0.0,0.0,94,0.00,CLR,,0.00,WeatherDisplay:10.37,2013-07-07 05:56:00,
2013-07-07 02:01:00,75.0,73.2,30.09,SSE,158,0.0,0.0,94,0.00,CLR,,0.00,WeatherDisplay:10.37,2013-07-07 06:01:00,
2013-07-07 02:06:00,75.0,73.2,30.09,NNW,338,0.0,0.0,94,0.00,CLR,,0.00,WeatherDisplay:10.37,2013-07-07 06:06:00,
2013-07-07 02:11:00,75.0,72.8,30.09,NNE,22,0.0,0.0,93,0.00,CLR,,0.00,WeatherDisplay:10.37,2013-07-07 06:11:00,
2013-07-07 02:16:00,75.0,72.8,30.09,NNE,22,0.0,0.0,93,0.00,CLR,,0.00,WeatherDisplay:10.37,2013-07-07 06:16:00,
2013-07-07 02:21:00,75.0,72.8,30.09,NNE,22,0.0,0.0,93,0.00,CLR,,0.00,WeatherDisplay:10.37,2013-07-07 06:21:00,
2013-07-07 02:26:00,75.0,72.8,30.10,NNE,22,0.0,0.0,93,0.00,CLR,,0.00,WeatherDisplay:10.37,2013-07-07 06:26:00,
2013-07-07 02:31:00,75.0,72.5,30.10,NNE,22,0.0,0.0,92,0.00,CLR,,0.00,WeatherDisplay:10.37,2013-07-07 06:31:00,
2013-07-07 02:36:00,75.2,72.7,30.10,NNE,22,0.0,0.0,92,0.00,CLR,,0.00,WeatherDisplay:10.37,2013-07-07 06:36:00,
2013-07-07 02:41:00,75.2,72.7,30.09,NNE,22,0.0,0.0,92,0.00,CLR,,0.00,WeatherDisplay:10.37,2013-07-07 06:41:00,
2013-07-07 02:46:00,75.2,72.7,30.09,NNE,22,0.0,0.0,92,0.00,CLR,,0.00,WeatherDisplay:10.37,2013-07-07 06:46:00,
2013-07-07 02:51:00,75.0,72.5,30.09,NNE,22,0.0,0.0,92,0.00,CLR,,0.00,WeatherDisplay:10.37,2013-07-07 06:51:00,
2013-07-07 02:56:00,75.0,72.5,30.09,South,180,0.0,0.0,92,0.00,CLR,,0.00,WeatherDisplay:10.37,2013-07-07 06:56:00,
2013-07-07 03:01:00,75.0,72.2,30.09,West,270,0.0,0.0,91,0.00,CLR,,0.00,WeatherDisplay:10.37,2013-07-07 07:01:00,
2013-07-07 03:06:00,75.0,72.2,30.09,NE,45,0.0,0.0,91,0.00,CLR,,0.00,WeatherDisplay:10.37,2013-07-07 07:06:00,
2013-07-07 03:11:00,75.2,72.1,30.09,South,180,0.0,0.0,90,0.00,CLR,,0.00,WeatherDisplay:10.37,2013-07-07 07:11:00,
2013-07-07 03:16:00,75.4,72.3,30.09,East,90,0.0,0.0,90,0.00,CLR,,0.00,WeatherDisplay:10.37,2013-07-07 07:16:00,
2013-07-07 03:21:00,75.4,72.3,30.09,North,360,0.0,0.0,90,0.00,CLR,,0.00,WeatherDisplay:10.37,2013-07-07 07:21:00,
2013-07-07 03:26:00,75.6,72.5,30.09,NE,45,0.0,0.0,90,0.00,CLR,,0.00,WeatherDisplay:10.37,2013-07-07 07:26:00,
2013-07-07 03:31:00,75.7,72.6,30.09,East,90,0.0,0.0,90,0.00,CLR,,0.00,WeatherDisplay:10.37,2013-07-07 07:31:00,
2013-07-07 03:36:00,75.7,72.2,30.09,South,180,0.0,0.0,89,0.00,CLR,,0.00,WeatherDisplay:10.37,2013-07-07 07:36:00,
2013-07-07 03:41:00,75.7,72.2,30.09,East,90,0.0,0.0,89,0.00,CLR,,0.00,WeatherDisplay:10.37,2013-07-07 07:41:00,
2013-07-07 03:46:00,75.7,72.2,30.09,ENE,68,0.0,0.0,89,0.00,CLR,,0.00,WeatherDisplay:10.37,2013-07-07 07:46:00,
2013-07-07 03:51:00,75.9,72.4,30.09,South,180,0.0,0.0,89,0.00,CLR,,0.00,WeatherDisplay:10.37,2013-07-07 07:51:00,
2013-07-07 03:56:00,75.9,72.4,30.09,ESE,112,0.0,0.0,89,0.00,CLR,,0.00,WeatherDisplay:10.37,2013-07-07 07:56:00,
2013-07-07 04:01:00,75.9,72.8,30.08,ESE,112,0.0,0.0,90,0.00,BKN,,0.00,WeatherDisplay:10.37,2013-07-07 08:01:00,
2013-07-07 04:06:00,75.7,72.6,30.08,SE,135,0.0,0.0,90,0.00,BKN,,0.00,WeatherDisplay:10.37,2013-07-07 08:06:00,
2013-07-07 04:11:00,75.6,72.5,30.08,East,90,0.0,0.0,90,0.00,BKN,,0.00,WeatherDisplay:10.37,2013-07-07 08:11:00,
2013-07-07 04:16:00,75.4,72.6,30.08,ENE,68,0.0,0.0,91,0.00,BKN,,0.00,WeatherDisplay:10.37,2013-07-07 08:16:00,
2013-07-07 04:21:00,75.2,72.4,30.08,South,180,0.0,0.0,91,0.00,BKN,,0.00,WeatherDisplay:10.37,2013-07-07 08:21:00,
2013-07-07 04:26:00,75.0,72.5,30.08,ESE,112,0.0,0.0,92,0.00,BKN,,0.00,WeatherDisplay:10.37,2013-07-07 08:26:00,
2013-07-07 04:31:00,75.0,72.5,30.08,South,180,0.0,0.0,92,0.00,BKN,,0.00,WeatherDisplay:10.37,2013-07-07 08:31:00,
2013-07-07 04:36:00,74.8,72.3,30.08,SSE,158,0.0,0.0,92,0.00,BKN,,0.00,WeatherDisplay:10.37,2013-07-07 08:36:00,
2013-07-07 04:41:00,74.7,72.2,30.08,SSE,158,0.0,0.0,92,0.00,BKN,,0.00,WeatherDisplay:10.37,2013-07-07 08:41:00,
2013-07-07 04:46:00,74.5,72.3,30.08,East,90,0.0,0.0,93,0.00,BKN,,0.00,WeatherDisplay:10.37,2013-07-07 08:46:00,
2013-07-07 04:51:00,74.3,72.1,30.08,East,90,0.0,0.0,93,0.00,BKN,,0.00,WeatherDisplay:10.37,2013-07-07 08:51:00,
2013-07-07 04:56:00,74.3,72.1,30.08,East,90,0.0,0.0,93,0.00,BKN,,0.00,WeatherDisplay:10.37,2013-07-07 08:56:00,
2013-07-07 05:01:00,74.3,72.1,30.08,East,90,0.0,0.0,93,0.00,BKN,,0.00,WeatherDisplay:10.37,2013-07-07 09:01:00,
2013-07-07 05:06:00,74.1,72.3,30.09,East,90,0.0,0.0,94,0.00,BKN,,0.00,WeatherDisplay:10.37,2013-07-07 09:06:00,
2013-07-07 05:11:00,74.1,72.3,30.09,East,90,0.0,0.0,94,0.00,SCT,,0.00,WeatherDisplay:10.37,2013-07-07 09:11:00,
2013-07-07 05:16:00,74.1,72.6,30.08,East,90,0.0,0.0,95,0.00,SCT,,0.00,WeatherDisplay:10.37,2013-07-07 09:16:00,
2013-07-07 05:21:00,73.9,72.4,30.08,East,90,0.0,0.0,95,0.00,SCT,,0.00,WeatherDisplay:10.37,2013-07-07 09:21:00,
2013-07-07 05:26:00,73.9,72.4,30.08,East,90,0.0,0.0,95,0.00,SCT,,0.00,WeatherDisplay:10.37,2013-07-07 09:26:00,
2013-07-07 05:31:00,73.8,72.3,30.08,East,90,0.0,0.0,95,0.00,SCT,,0.00,WeatherDisplay:10.37,2013-07-07 09:31:00,
2013-07-07 05:36:00,73.8,72.6,30.08,East,90,0.0,0.0,96,0.00,SCT,,0.00,WeatherDisplay:10.37,2013-07-07 09:36:00,
2013-07-07 05:41:00,73.8,72.6,30.08,East,90,0.0,0.0,96,0.00,SCT,,0.00,WeatherDisplay:10.37,2013-07-07 09:41:00,
2013-07-07 05:46:00,73.8,72.6,30.08,East,90,0.0,0.0,96,0.00,SCT,,0.00,WeatherDisplay:10.37,2013-07-07 09:46:00,
2013-07-07 05:51:00,73.8,72.6,30.08,South,180,0.0,0.0,96,0.00,SCT,,0.00,WeatherDisplay:10.37,2013-07-07 09:51:00,
2013-07-07 05:56:00,73.8,72.6,30.08,NW,315,0.0,0.0,96,0.00,SCT,,0.00,WeatherDisplay:10.37,2013-07-07 09:56:00,
2013-07-07 06:01:00,73.8,72.6,30.08,SW,225,0.0,0.0,96,0.00,SCT,,0.00,WeatherDisplay:10.37,2013-07-07 10:01:00,
2013-07-07 06:06:00,73.8,72.6,30.08,SSW,202,0.0,0.0,96,0.00,SCT,,0.00,WeatherDisplay:10.37,2013-07-07 10:06:00,
2013-07-07 06:11:00,73.8,72.6,30.08,SE,135,0.0,0.0,96,0.00,CLR,,0.00,WeatherDisplay:10.37,2013-07-07 10:11:00,
2013-07-07 06:16:00,73.8,72.6,30.08,East,90,0.0,0.0,96,0.00,CLR,,0.00,WeatherDisplay:10.37,2013-07-07 10:16:00,
2013-07-07 06:21:00,73.8,72.6,30.08,East,90,0.0,0.0,96,0.00,CLR,,0.00,WeatherDisplay:10.37,2013-07-07 10:21:00,
2013-07-07 06:26:00,73.8,72.6,30.08,WSW,248,0.0,0.0,96,0.00,CLR,,0.00,WeatherDisplay:10.37,2013-07-07 10:26:00,
2013-07-07 06:31:00,73.8,72.9,30.08,West,270,0.0,0.0,97,0.00,CLR,,0.00,WeatherDisplay:10.37,2013-07-07 10:31:00,
2013-07-07 06:36:00,73.8,72.9,30.08,NNW,338,0.0,0.0,97,0.00,CLR,,0.00,WeatherDisplay:10.37,2013-07-07 10:36:00,
2013-07-07 06:41:00,73.9,73.0,30.09,West,270,0.0,0.0,97,0.00,CLR,,0.00,WeatherDisplay:10.37,2013-07-07 10:41:00,
2013-07-07 06:46:00,74.1,73.2,30.09,WSW,248,0.0,0.0,97,0.00,CLR,,0.00,WeatherDisplay:10.37,2013-07-07 10:46:00,
2013-07-07 06:51:00,74.3,73.4,30.08,SE,135,0.0,0.0,97,0.00,CLR,,0.00,WeatherDisplay:10.37,2013-07-07 10:51:00,
2013-07-07 06:56:00,74.3,73.4,30.08,NE,45,0.0,0.0,97,0.00,CLR,,0.00,WeatherDisplay:10.37,2013-07-07 10:56:00,
2013-07-07 07:01:00,74.7,73.5,30.08,SSE,158,0.0,0.0,96,0.00,CLR,,0.00,WeatherDisplay:10.37,2013-07-07 11:01:00,
2013-07-07 07:06:00,74.7,73.5,30.09,SSW,202,0.0,0.0,96,0.00,CLR,,0.00,WeatherDisplay:10.37,2013-07-07 11:06:00,
2013-07-07 07:11:00,74.8,73.6,30.09,WSW,248,0.0,0.0,96,0.00,CLR,,0.00,WeatherDisplay:10.37,2013-07-07 11:11:00,
2013-07-07 07:12:00,74.8,73.6,30.09,WSW,248,0.0,0.0,96,0.00,CLR,,0.00,WeatherDisplay:10.37,2013-07-07 11:12:00,
2013-07-07 07:17:00,75.0,73.8,30.09,WSW,248,0.0,0.0,96,0.00,CLR,,0.00,WeatherDisplay:10.37,2013-07-07 11:17:00,
2013-07-07 07:22:00,75.4,73.9,30.09,West,270,0.0,0.0,95,0.00,CLR,,0.00,WeatherDisplay:10.37,2013-07-07 11:22:00,
2013-07-07 07:27:00,75.6,74.1,30.09,WSW,248,0.0,0.0,95,0.00,CLR,,0.00,WeatherDisplay:10.37,2013-07-07 11:27:00,
2013-07-07 07:32:00,75.7,73.8,30.09,SSW,202,0.0,0.0,94,0.00,CLR,,0.00,WeatherDisplay:10.37,2013-07-07 11:32:00,
2013-07-07 07:37:00,75.9,74.0,30.09,SSW,202,0.0,0.0,94,0.00,CLR,,0.00,WeatherDisplay:10.37,2013-07-07 11:37:00,
2013-07-07 07:42:00,75.9,74.0,30.09,East,90,0.0,0.0,94,0.00,CLR,,0.00,WeatherDisplay:10.37,2013-07-07 11:42:00,
2013-07-07 07:47:00,75.9,74.0,30.09,WSW,248,0.0,0.0,94,0.00,CLR,,0.00,WeatherDisplay:10.37,2013-07-07 11:47:00,
2013-07-07 07:52:00,76.5,74.3,30.09,West,270,0.0,0.0,93,0.00,CLR,,0.00,WeatherDisplay:10.37,2013-07-07 11:52:00,
2013-07-07 07:57:00,76.6,73.8,30.09,SW,225,0.0,0.0,91,0.00,CLR,,0.00,WeatherDisplay:10.37,2013-07-07 11:57:00,
2013-07-07 08:02:00,77.0,74.2,30.09,WSW,248,0.0,0.0,91,0.00,CLR,,0.00,WeatherDisplay:10.37,2013-07-07 12:02:00,
2013-07-07 08:07:00,77.0,74.2,30.09,WSW,248,0.0,0.0,91,0.00,CLR,,0.00,WeatherDisplay:10.37,2013-07-07 12:07:00,
2013-07-07 08:12:00,77.0,74.2,30.09,WSW,248,0.0,0.0,91,0.00,CLR,,0.00,WeatherDisplay:10.37,2013-07-07 12:12:00,
2013-07-07 08:17:00,77.7,74.2,30.09,West,270,0.0,0.0,89,0.00,CLR,,0.00,WeatherDisplay:10.37,2013-07-07 12:17:00,
2013-07-07 08:22:00,78.1,74.3,30.09,SE,135,0.0,0.0,88,0.00,CLR,,0.00,WeatherDisplay:10.37,2013-07-07 12:22:00,
2013-07-07 08:27:00,78.3,74.5,30.09,SSE,158,0.0,0.0,88,0.00,CLR,,0.00,WeatherDisplay:10.37,2013-07-07 12:27:00,
2013-07-07 08:32:00,78.6,74.7,30.09,SSE,158,0.0,0.0,88,0.00,CLR,,0.00,WeatherDisplay:10.37,2013-07-07 12:32:00,
2013-07-07 08:37:00,78.6,75.1,30.08,South,180,0.0,0.0,89,0.00,CLR,,0.00,WeatherDisplay:10.37,2013-07-07 12:37:00,
2013-07-07 08:42:00,79.0,74.8,30.08,SSE,158,0.0,0.0,87,0.00,CLR,,0.00,WeatherDisplay:10.37,2013-07-07 12:42:00,
2013-07-07 08:47:00,79.2,75.0,30.08,South,180,0.0,0.0,87,0.00,CLR,,0.00,WeatherDisplay:10.37,2013-07-07 12:47:00,
2013-07-07 08:52:00,79.2,75.0,30.09,SSW,202,0.0,0.0,87,0.00,CLR,,0.00,WeatherDisplay:10.37,2013-07-07 12:52:00,
2013-07-07 08:57:00,79.2,75.0,30.09,SSW,202,0.0,0.0,87,0.00,CLR,,0.00,WeatherDisplay:10.37,2013-07-07 12:57:00,
2013-07-07 09:02:00,79.2,75.0,30.09,SSW,202,0.0,0.0,87,0.00,CLR,,0.00,WeatherDisplay:10.37,2013-07-07 13:02:00,
2013-07-07 09:07:00,79.2,75.0,30.09,SSW,202,0.0,0.0,87,0.00,CLR,,0.00,WeatherDisplay:10.37,2013-07-07 13:07:00,
2013-07-07 09:12:00,79.2,75.0,30.09,SSW,202,0.0,0.0,87,0.00,CLR,,0.00,WeatherDisplay:10.37,2013-07-07 13:12:00,
2013-07-07 09:17:00,79.2,75.0,30.09,SSW,202,0.0,0.0,87,0.00,CLR,,0.00,WeatherDisplay:10.37,2013-07-07 13:17:00,
2013-07-07 09:22:00,79.2,75.0,30.09,SSW,202,0.0,0.0,87,0.00,CLR,,0.00,WeatherDisplay:10.37,2013-07-07 13:22:00,
2013-07-07 09:27:00,81.1,76.2,30.08,SSW,202,0.0,0.0,85,0.00,CLR,,0.00,WeatherDisplay:10.37,2013-07-07 13:27:00,
2013-07-07 09:32:00,81.1,76.2,30.08,SSW,202,0.0,0.0,85,0.00,CLR,,0.00,WeatherDisplay:10.37,2013-07-07 13:32:00,
2013-07-07 09:37:00,81.1,76.2,30.08,SSW,202,0.0,0.0,85,0.00,CLR,,0.00,WeatherDisplay:10.37,2013-07-07 13:37:00,
2013-07-07 09:42:00,82.2,76.5,30.08,SW,225,0.0,0.0,83,0.00,CLR,,0.00,WeatherDisplay:10.37,2013-07-07 13:42:00,
2013-07-07 09:47:00,82.8,76.7,30.08,NNE,22,0.0,0.0,82,0.00,CLR,,0.00,WeatherDisplay:10.37,2013-07-07 13:47:00,
2013-07-07 09:52:00,83.1,76.7,30.08,East,90,0.0,0.0,81,0.00,CLR,,0.00,WeatherDisplay:10.37,2013-07-07 13:52:00,
2013-07-07 09:57:00,83.5,76.7,30.08,West,270,0.0,0.0,80,0.00,CLR,,0.00,WeatherDisplay:10.37,2013-07-07 13:57:00,
2013-07-07 10:02:00,83.7,76.1,30.07,WNW,292,0.0,0.0,78,0.00,CLR,,0.00,WeatherDisplay:10.37,2013-07-07 14:02:00,
2013-07-07 10:07:00,84.0,76.4,30.07,East,90,0.0,0.0,78,0.00,CLR,,0.00,WeatherDisplay:10.37,2013-07-07 14:07:00,
2013-07-07 10:12:00,84.2,76.6,30.07,SSE,158,0.0,0.0,78,0.00,CLR,,0.00,WeatherDisplay:10.37,2013-07-07 14:12:00,
2013-07-07 10:17:00,84.2,77.0,30.07,ENE,68,0.0,0.0,79,0.00,CLR,,0.00,WeatherDisplay:10.37,2013-07-07 14:17:00,
2013-07-07 10:22:00,84.2,77.0,30.07,SSE,158,0.0,0.0,79,0.00,CLR,,0.00,WeatherDisplay:10.37,2013-07-07 14:22:00,
2013-07-07 10:27:00,84.2,76.6,30.07,South,180,0.0,0.0,78,0.00,CLR,,0.00,WeatherDisplay:10.37,2013-07-07 14:27:00,
2013-07-07 10:32:00,84.2,76.6,30.07,West,270,0.0,0.0,78,0.00,CLR,,0.00,WeatherDisplay:10.37,2013-07-07 14:32:00,
2013-07-07 10:37:00,84.2,76.6,30.08,SE,135,0.0,0.0,78,0.00,CLR,,0.00,WeatherDisplay:10.37,2013-07-07 14:37:00,
2013-07-07 10:42:00,84.2,77.0,30.08,SSW,202,0.0,0.0,79,0.00,CLR,,0.00,WeatherDisplay:10.37,2013-07-07 14:42:00,
2013-07-07 10:47:00,84.4,76.4,30.08,SE,135,0.0,0.0,77,0.00,CLR,,0.00,WeatherDisplay:10.37,2013-07-07 14:47:00,
2013-07-07 10:52:00,84.7,76.7,30.07,NNE,22,0.0,0.0,77,0.00,CLR,,0.00,WeatherDisplay:10.37,2013-07-07 14:52:00,
2013-07-07 10:57:00,84.9,76.9,30.07,NNE,22,0.0,0.0,77,0.00,CLR,,0.00,WeatherDisplay:10.37,2013-07-07 14:57:00,
2013-07-07 11:02:00,85.3,77.3,30.07,ESE,112,0.0,0.0,77,0.00,CLR,,0.00,WeatherDisplay:10.37,2013-07-07 15:02:00,
2013-07-07 11:07:00,85.6,77.2,30.07,SSE,158,0.0,0.0,76,0.00,CLR,,0.00,WeatherDisplay:10.37,2013-07-07 15:07:00,
2013-07-07 11:12:00,86.0,76.7,30.07,NE,45,0.0,0.0,74,0.00,FEW,,0.00,WeatherDisplay:10.37,2013-07-07 15:12:00,
2013-07-07 11:17:00,86.4,76.3,30.06,ESE,112,0.0,0.0,72,0.00,FEW,,0.00,WeatherDisplay:10.37,2013-07-07 15:17:00,
2013-07-07 11:22:00,86.5,76.0,30.06,NE,45,0.0,0.0,71,0.00,FEW,,0.00,WeatherDisplay:10.37,2013-07-07 15:22:00,
2013-07-07 11:27:00,85.3,76.1,30.06,ESE,112,0.0,0.0,74,0.00,FEW,,0.00,WeatherDisplay:10.37,2013-07-07 15:27:00,
2013-07-07 11:32:00,84.2,76.6,30.06,ESE,112,0.0,0.0,78,0.00,FEW,,0.00,WeatherDisplay:10.37,2013-07-07 15:32:00,
2013-07-07 11:37:00,87.4,77.3,30.06,ESE,112,0.0,0.0,72,0.00,FEW,,0.00,WeatherDisplay:10.37,2013-07-07 15:37:00,
2013-07-07 11:42:00,86.7,76.6,30.06,South,180,0.0,0.0,72,0.00,FEW,,0.00,WeatherDisplay:10.37,2013-07-07 15:42:00,
2013-07-07 11:47:00,86.5,76.0,30.06,NE,45,0.0,0.0,71,0.00,FEW,,0.00,WeatherDisplay:10.37,2013-07-07 15:47:00,
2013-07-07 11:52:00,87.8,76.8,30.06,SSE,158,0.0,0.0,70,0.00,FEW,,0.00,WeatherDisplay:10.37,2013-07-07 15:52:00,
2013-07-07 11:57:00,87.8,77.6,30.06,South,180,0.0,0.0,72,0.00,FEW,,0.00,WeatherDisplay:10.37,2013-07-07 15:57:00,
2013-07-07 12:02:00,88.3,76.8,30.06,SSW,202,1.0,1.2,69,0.00,FEW,,0.00,WeatherDisplay:10.37,2013-07-07 16:02:00,
2013-07-07 12:07:00,89.4,77.0,30.06,South,180,1.4,2.3,67,0.00,FEW,,0.00,WeatherDisplay:10.37,2013-07-07 16:07:00,
2013-07-07 12:12:00,88.0,76.5,30.06,South,180,0.0,0.0,69,0.00,FEW,,0.00,WeatherDisplay:10.37,2013-07-07 16:12:00,
2013-07-07 12:17:00,89.1,77.6,30.06,ESE,112,0.0,0.0,69,0.00,FEW,,0.00,WeatherDisplay:10.37,2013-07-07 16:17:00,
2013-07-07 12:22:00,91.2,76.4,30.06,East,90,0.0,0.0,62,0.00,FEW,,0.00,WeatherDisplay:10.37,2013-07-07 16:22:00,
2013-07-07 12:27:00,91.6,76.7,30.05,SSE,158,0.0,0.0,62,0.00,FEW,,0.00,WeatherDisplay:10.37,2013-07-07 16:27:00,
2013-07-07 12:32:00,91.4,76.1,30.05,NE,45,0.0,0.0,61,0.00,FEW,,0.00,WeatherDisplay:10.37,2013-07-07 16:32:00,
2013-07-07 12:37:00,89.2,75.9,30.05,South,180,0.4,3.5,65,0.00,FEW,,0.00,WeatherDisplay:10.37,2013-07-07 16:37:00,
2013-07-07 12:42:00,86.5,76.0,30.05,NE,45,0.0,1.2,71,0.00,FEW,,0.00,WeatherDisplay:10.37,2013-07-07 16:42:00,
2013-07-07 12:48:00,88.7,76.3,30.05,ESE,112,1.1,1.7,67,0.00,FEW,,0.00,WeatherDisplay:10.37,2013-07-07 16:48:00,
2013-07-07 12:53:00,90.0,76.2,30.04,SSE,158,0.5,1.2,64,0.00,FEW,,0.00,WeatherDisplay:10.37,2013-07-07 16:53:00,
2013-07-07 12:58:00,90.0,76.2,30.04,SSW,202,1.3,3.5,64,0.00,FEW,,0.00,WeatherDisplay:10.37,2013-07-07 16:58:00,
2013-07-07 13:03:00,88.5,76.1,30.04,East,90,0.0,0.0,67,0.00,FEW,,0.00,WeatherDisplay:10.37,2013-07-07 17:03:00,
2013-07-07 13:08:00,89.8,77.4,30.04,ENE,68,0.2,1.2,67,0.00,FEW,,0.00,WeatherDisplay:10.37,2013-07-07 17:08:00,
2013-07-07 13:13:00,90.5,76.7,30.04,SSE,158,1.0,1.2,64,0.00,FEW,,0.00,WeatherDisplay:10.37,2013-07-07 17:13:00,
2013-07-07 13:18:00,90.7,76.4,30.04,South,180,0.0,0.0,63,0.00,FEW,,0.00,WeatherDisplay:10.37,2013-07-07 17:18:00,
2013-07-07 13:23:00,90.7,76.4,30.04,South,180,1.7,2.3,63,0.00,FEW,,0.00,WeatherDisplay:10.37,2013-07-07 17:23:00,
2013-07-07 13:28:00,90.5,76.2,30.04,ENE,68,0.0,0.0,63,0.00,FEW,,0.00,WeatherDisplay:10.37,2013-07-07 17:28:00,
2013-07-07 13:33:00,90.5,76.2,30.04,SE,135,0.0,0.0,63,0.00,FEW,,0.00,WeatherDisplay:10.37,2013-07-07 17:33:00,
2013-07-07 13:38:00,90.5,76.2,30.04,SSW,202,0.0,0.0,63,0.00,FEW,,0.00,WeatherDisplay:10.37,2013-07-07 17:38:00,
2013-07-07 13:43:00,90.3,75.5,30.04,NE,45,0.0,0.0,62,0.00,FEW,,0.00,WeatherDisplay:10.37,2013-07-07 17:43:00,
2013-07-07 13:48:00,90.0,76.6,30.04,ESE,112,0.0,0.0,65,0.00,FEW,,0.00,WeatherDisplay:10.37,2013-07-07 17:48:00,
2013-07-07 13:53:00,90.0,77.1,30.03,East,90,0.8,2.3,66,0.00,FEW,,0.00,WeatherDisplay:10.37,2013-07-07 17:53:00,
2013-07-07 13:58:00,90.0,76.6,30.03,SSE,158,0.0,0.0,65,0.00,FEW,,0.00,WeatherDisplay:10.37,2013-07-07 17:58:00,
2013-07-07 14:03:00,90.0,75.2,30.02,ESE,112,0.6,1.7,62,0.00,FEW,,0.00,WeatherDisplay:10.37,2013-07-07 18:03:00,
2013-07-07 14:08:00,90.0,74.7,30.02,SW,225,0.2,1.2,61,0.00,FEW,,0.00,WeatherDisplay:10.37,2013-07-07 18:08:00,
2013-07-07 14:13:00,90.0,75.7,30.02,ENE,68,0.0,0.0,63,0.00,FEW,,0.00,WeatherDisplay:10.37,2013-07-07 18:13:00,
2013-07-07 14:18:00,89.8,74.1,30.02,SW,225,0.0,0.0,60,0.00,FEW,,0.00,WeatherDisplay:10.37,2013-07-07 18:18:00,
2013-07-07 14:23:00,89.8,74.6,30.02,ENE,68,0.0,0.0,61,0.00,FEW,,0.00,WeatherDisplay:10.37,2013-07-07 18:23:00,
2013-07-07 14:28:00,89.6,74.9,30.01,SE,135,0.0,0.0,62,0.00,FEW,,0.00,WeatherDisplay:10.37,2013-07-07 18:28:00,
2013-07-07 14:33:00,89.4,74.7,30.01,East,90,0.3,1.2,62,0.00,FEW,,0.00,WeatherDisplay:10.37,2013-07-07 18:33:00,
2013-07-07 14:38:00,89.4,75.1,30.01,ENE,68,2.4,3.5,63,0.00,FEW,,0.00,WeatherDisplay:10.37,2013-07-07 18:38:00,
2013-07-07 14:43:00,89.4,74.7,30.01,ESE,112,0.0,0.0,62,0.00,FEW,,0.00,WeatherDisplay:10.37,2013-07-07 18:43:00,
2013-07-07 14:48:00,89.4,74.7,30.01,SE,135,1.2,1.2,62,0.00,FEW,,0.00,WeatherDisplay:10.37,2013-07-07 18:48:00,
2013-07-07 14:53:00,89.6,74.4,30.01,NNW,338,1.4,2.3,61,0.00,FEW,,0.00,WeatherDisplay:10.37,2013-07-07 18:53:00,
2013-07-07 14:58:00,89.6,75.8,30.01,SSE,158,0.0,0.0,64,0.00,FEW,,0.00,WeatherDisplay:10.37,2013-07-07 18:58:00,
2013-07-07 15:03:00,89.4,73.7,30.02,WSW,248,2.2,2.3,60,0.00,CLR,,0.00,WeatherDisplay:10.37,2013-07-07 19:03:00,
2013-07-07 15:08:00,89.6,73.9,30.02,NE,45,1.3,2.3,60,0.00,CLR,,0.00,WeatherDisplay:10.37,2013-07-07 19:08:00,
2013-07-07 15:13:00,89.8,75.0,30.01,ESE,112,0.3,2.2,62,0.00,CLR,,0.00,WeatherDisplay:10.37,2013-07-07 19:13:00,
2013-07-07 15:18:00,89.6,74.9,30.01,SSW,202,1.0,2.3,62,0.00,CLR,,0.00,WeatherDisplay:10.37,2013-07-07 19:18:00,
2013-07-07 15:23:00,89.6,74.4,30.01,SW,225,0.0,0.0,61,0.00,CLR,,0.00,WeatherDisplay:10.37,2013-07-07 19:23:00,
2013-07-07 15:28:00,89.6,74.4,30.01,East,90,0.0,0.0,61,0.00,CLR,,0.00,WeatherDisplay:10.37,2013-07-07 19:28:00,
2013-07-07 15:33:00,89.8,75.0,30.01,ESE,112,0.0,0.0,62,0.00,CLR,,0.00,WeatherDisplay:10.37,2013-07-07 19:33:00,
2013-07-07 15:38:00,89.8,75.5,30.00,East,90,1.0,2.3,63,0.00,CLR,,0.00,WeatherDisplay:10.37,2013-07-07 19:38:00,
2013-07-07 15:43:00,89.6,74.9,30.00,NNE,22,2.0,2.3,62,0.00,CLR,,0.00,WeatherDisplay:10.37,2013-07-07 19:43:00,
2013-07-07 15:48:00,89.4,75.1,30.00,ESE,112,0.0,0.0,63,0.00,CLR,,0.00,WeatherDisplay:10.37,2013-07-07 19:48:00,
2013-07-07 15:53:00,87.6,74.4,30.00,ESE,112,1.1,1.7,65,0.00,CLR,,0.00,WeatherDisplay:10.37,2013-07-07 19:53:00,
2013-07-07 15:58:00,88.9,75.1,30.00,South,180,0.0,0.0,64,0.00,CLR,,0.00,WeatherDisplay:10.37,2013-07-07 19:58:00,
2013-07-07 16:03:00,89.2,75.0,29.99,East,90,0.0,0.0,63,0.00,CLR,,0.00,WeatherDisplay:10.37,2013-07-07 20:03:00,
2013-07-07 16:08:00,89.2,75.0,29.99,NNE,22,0.0,0.0,63,0.00,CLR,,0.00,WeatherDisplay:10.37,2013-07-07 20:08:00,
2013-07-07 16:13:00,89.2,75.0,29.99,West,270,0.6,2.3,63,0.00,CLR,,0.00,WeatherDisplay:10.37,2013-07-07 20:13:00,
2013-07-07 16:18:00,88.9,75.6,29.99,NNE,22,0.0,0.0,65,0.00,CLR,,0.00,WeatherDisplay:10.37,2013-07-07 20:18:00,
2013-07-07 16:23:00,88.7,75.4,29.99,NNE,22,0.0,0.0,65,0.00,CLR,,0.00,WeatherDisplay:10.37,2013-07-07 20:23:00,
2013-07-07 16:28:00,88.5,75.7,29.99,WSW,248,0.0,0.0,66,0.00,CLR,,0.00,WeatherDisplay:10.37,2013-07-07 20:28:00,
2013-07-07 16:33:00,88.5,76.1,29.99,East,90,0.0,0.0,67,0.00,CLR,,0.00,WeatherDisplay:10.37,2013-07-07 20:33:00,
2013-07-07 16:38:00,88.5,76.6,30.00,SSE,158,0.0,0.0,68,0.00,CLR,,0.00,WeatherDisplay:10.37,2013-07-07 20:38:00,
2013-07-07 16:43:00,88.2,76.7,30.00,ENE,68,0.0,0.0,69,0.00,CLR,,0.00,WeatherDisplay:10.37,2013-07-07 20:43:00,
2013-07-07 16:48:00,88.2,77.2,30.00,ENE,68,0.0,0.0,70,0.00,CLR,,0.00,WeatherDisplay:10.37,2013-07-07 20:48:00,
2013-07-07 16:53:00,87.8,76.8,29.99,SSE,158,0.0,0.0,70,0.00,CLR,,0.00,WeatherDisplay:10.37,2013-07-07 20:53:00,
2013-07-07 16:58:00,87.4,76.8,29.99,ENE,68,0.0,0.0,71,0.00,CLR,,0.00,WeatherDisplay:10.37,2013-07-07 20:58:00,
2013-07-07 17:03:00,87.6,76.2,29.99,NE,45,0.0,0.0,69,0.00,CLR,,0.00,WeatherDisplay:10.37,2013-07-07 21:03:00,
2013-07-07 17:08:00,87.8,76.8,29.99,ENE,68,0.0,0.0,70,0.00,CLR,,0.00,WeatherDisplay:10.37,2013-07-07 21:08:00,
2013-07-07 17:13:00,85.8,77.0,29.99,East,90,0.0,0.0,75,0.00,CLR,,0.00,WeatherDisplay:10.37,2013-07-07 21:13:00,
2013-07-07 17:18:00,86.2,76.5,29.99,NNE,22,0.0,0.0,73,0.00,CLR,,0.00,WeatherDisplay:10.37,2013-07-07 21:18:00,
2013-07-07 17:23:00,87.6,77.0,29.99,SSE,158,0.0,0.0,71,0.00,CLR,,0.00,WeatherDisplay:10.37,2013-07-07 21:23:00,
2013-07-07 17:28:00,89.6,77.6,29.98,South,180,0.0,0.0,68,0.00,CLR,,0.00,WeatherDisplay:10.37,2013-07-07 21:28:00,
2013-07-07 17:33:00,90.0,78.0,29.98,North,360,0.0,0.0,68,0.00,CLR,,0.00,WeatherDisplay:10.37,2013-07-07 21:33:00,
2013-07-07 17:38:00,89.6,77.6,29.98,NE,45,0.0,0.0,68,0.00,CLR,,0.00,WeatherDisplay:10.37,2013-07-07 21:38:00,
2013-07-07 17:43:00,89.1,77.2,29.98,ENE,68,0.0,0.0,68,0.00,CLR,,0.00,WeatherDisplay:10.37,2013-07-07 21:43:00,
2013-07-07 17:48:00,88.3,76.8,29.98,ENE,68,0.0,0.0,69,0.00,CLR,,0.00,WeatherDisplay:10.37,2013-07-07 21:48:00,
2013-07-07 17:53:00,87.8,77.2,29.98,South,180,0.0,0.0,71,0.00,CLR,,0.00,WeatherDisplay:10.37,2013-07-07 21:53:00,
2013-07-07 17:58:00,87.4,76.8,29.98,ESE,112,0.0,0.0,71,0.00,CLR,,0.00,WeatherDisplay:10.37,2013-07-07 21:58:00,
2013-07-07 18:03:00,87.1,77.0,29.98,East,90,0.0,0.0,72,0.00,CLR,,0.00,WeatherDisplay:10.37,2013-07-07 22:03:00,
2013-07-07 18:08:00,86.9,76.8,29.98,WSW,248,0.0,0.0,72,0.00,CLR,,0.00,WeatherDisplay:10.37,2013-07-07 22:08:00,
2013-07-07 18:13:00,86.0,79.9,29.98,SSE,158,0.0,0.0,82,0.00,CLR,,0.00,WeatherDisplay:10.37,2013-07-07 22:13:00,
2013-07-07 18:18:00,84.4,78.7,29.98,SE,135,0.0,0.0,83,0.01,RA,,0.01,WeatherDisplay:10.37,2013-07-07 22:18:00,
2013-07-07 18:23:00,84.2,78.1,29.98,NNE,22,0.0,0.0,82,0.01,RA,,0.01,WeatherDisplay:10.37,2013-07-07 22:23:00,
2013-07-07 18:28:00,84.0,77.9,29.98,SSE,158,0.0,0.0,82,0.01,CLR,,0.01,WeatherDisplay:10.37,2013-07-07 22:28:00,
2013-07-07 18:33:00,83.8,77.3,29.98,ENE,68,0.0,0.0,81,0.01,CLR,,0.01,WeatherDisplay:10.37,2013-07-07 22:33:00,
2013-07-07 18:38:00,83.7,77.2,29.99,NE,45,0.0,0.0,81,0.01,CLR,,0.01,WeatherDisplay:10.37,2013-07-07 22:38:00,
2013-07-07 18:43:00,83.7,77.2,29.99,NNW,338,0.0,0.0,81,0.01,BKN,,0.01,WeatherDisplay:10.37,2013-07-07 22:43:00,
2013-07-07 18:48:00,83.5,77.4,29.99,NNE,22,0.0,0.0,82,0.01,BKN,,0.01,WeatherDisplay:10.37,2013-07-07 22:48:00,
2013-07-07 18:53:00,83.3,77.6,29.99,SSE,158,0.0,0.0,83,0.01,BKN,,0.01,WeatherDisplay:10.37,2013-07-07 22:53:00,
2013-07-07 18:58:00,83.1,77.8,29.99,ESE,112,0.0,0.0,84,0.01,BKN,,0.01,WeatherDisplay:10.37,2013-07-07 22:58:00,
2013-07-07 19:03:00,82.9,77.2,29.99,NNE,22,0.0,0.0,83,0.01,BKN,,0.01,WeatherDisplay:10.37,2013-07-07 23:03:00,
2013-07-07 19:08:00,82.8,77.1,29.99,NNE,22,0.0,0.0,83,0.01,BKN,,0.01,WeatherDisplay:10.37,2013-07-07 23:08:00,
2013-07-07 19:13:00,82.4,76.7,29.99,East,90,0.0,0.0,83,0.01,BKN,,0.01,WeatherDisplay:10.37,2013-07-07 23:13:00,
2013-07-07 19:18:00,82.2,76.2,29.99,SW,225,0.0,0.0,82,0.00,BKN,,0.01,WeatherDisplay:10.37,2013-07-07 23:18:00,
2013-07-07 19:23:00,82.0,76.3,29.99,ESE,112,0.0,0.0,83,0.00,BKN,,0.01,WeatherDisplay:10.37,2013-07-07 23:23:00,
2013-07-07 19:28:00,81.9,76.6,29.98,SW,225,0.0,0.0,84,0.00,BKN,,0.01,WeatherDisplay:10.37,2013-07-07 23:28:00,
2013-07-07 19:33:00,81.7,76.7,29.98,ENE,68,0.0,0.0,85,0.00,BKN,,0.01,WeatherDisplay:10.37,2013-07-07 23:33:00,
2013-07-07 19:38:00,81.5,76.6,29.98,East,90,0.0,0.0,85,0.00,BKN,,0.01,WeatherDisplay:10.37,2013-07-07 23:38:00,
2013-07-07 19:43:00,81.3,76.4,29.98,North,360,0.0,0.0,85,0.00,BKN,,0.01,WeatherDisplay:10.37,2013-07-07 23:43:00,
2013-07-07 19:48:00,81.3,76.4,29.98,ESE,112,0.0,0.0,85,0.00,BKN,,0.01,WeatherDisplay:10.37,2013-07-07 23:48:00,
2013-07-07 19:53:00,81.0,76.1,29.98,ESE,112,0.0,0.0,85,0.00,BKN,,0.01,WeatherDisplay:10.37,2013-07-07 23:53:00,
2013-07-07 19:58:00,81.0,76.4,29.98,East,90,0.0,0.0,86,0.00,BKN,,0.01,WeatherDisplay:10.37,2013-07-07 23:58:00,
2013-07-07 20:03:00,80.6,76.0,29.98,ESE,112,0.0,0.0,86,0.00,CLR,,0.01,WeatherDisplay:10.37,2013-07-08 00:03:00,
2013-07-07 20:08:00,80.4,75.8,29.98,SE,135,0.0,0.0,86,0.00,CLR,,0.01,WeatherDisplay:10.37,2013-07-08 00:08:00,
2013-07-07 20:13:00,80.4,76.2,29.98,ESE,112,0.0,0.0,87,0.00,CLR,,0.01,WeatherDisplay:10.37,2013-07-08 00:13:00,
2013-07-07 20:18:00,80.2,76.0,29.99,NNW,338,0.0,0.0,87,0.00,CLR,,0.01,WeatherDisplay:10.37,2013-07-08 00:18:00,
2013-07-07 20:23:00,80.1,75.9,29.99,West,270,0.0,0.0,87,0.00,CLR,,0.01,WeatherDisplay:10.37,2013-07-08 00:23:00,
2013-07-07 20:28:00,79.9,76.4,29.99,SSE,158,0.0,0.0,89,0.00,CLR,,0.01,WeatherDisplay:10.37,2013-07-08 00:28:00,
2013-07-07 20:33:00,79.7,76.2,29.99,NE,45,0.0,0.0,89,0.00,CLR,,0.01,WeatherDisplay:10.37,2013-07-08 00:33:00,
2013-07-07 20:38:00,79.5,76.0,29.99,East,90,0.0,0.0,89,0.00,CLR,,0.01,WeatherDisplay:10.37,2013-07-08 00:38:00,
2013-07-07 20:43:00,79.3,76.1,29.99,ESE,112,0.0,0.0,90,0.00,CLR,,0.01,WeatherDisplay:10.37,2013-07-08 00:43:00,
2013-07-07 20:48:00,79.3,76.1,29.99,South,180,0.0,0.0,90,0.00,CLR,,0.01,WeatherDisplay:10.37,2013-07-08 00:48:00,
2013-07-07 20:53:00,79.2,76.0,30.00,SSE,158,0.0,0.0,90,0.00,CLR,,0.01,WeatherDisplay:10.37,2013-07-08 00:53:00,
2013-07-07 20:58:00,79.0,76.1,30.00,South,180,0.0,0.0,91,0.00,CLR,,0.01,WeatherDisplay:10.37,2013-07-08 00:58:00,
2013-07-07 21:03:00,78.8,75.9,30.01,SE,135,0.0,0.0,91,0.00,CLR,,0.01,WeatherDisplay:10.37,2013-07-08 01:03:00,
2013-07-07 21:08:00,78.8,75.9,30.01,WSW,248,0.0,0.0,91,0.00,CLR,,0.01,WeatherDisplay:10.37,2013-07-08 01:08:00,
2013-07-07 21:13:00,78.6,75.8,30.01,ESE,112,0.0,0.0,91,0.00,CLR,,0.01,WeatherDisplay:10.37,2013-07-08 01:13:00,
2013-07-07 21:18:00,78.6,75.8,30.01,ESE,112,0.0,0.0,91,0.00,CLR,,0.01,WeatherDisplay:10.37,2013-07-08 01:18:00,
2013-07-07 21:23:00,78.4,75.6,30.01,ESE,112,0.0,0.0,91,0.00,CLR,,0.01,WeatherDisplay:10.37,2013-07-08 01:23:00,
2013-07-07 21:28:00,78.3,75.5,30.01,ESE,112,0.0,0.0,91,0.00,CLR,,0.01,WeatherDisplay:10.37,2013-07-08 01:28:00,
2013-07-07 21:33:00,78.3,75.5,30.01,ESE,112,0.0,0.0,91,0.00,CLR,,0.01,WeatherDisplay:10.37,2013-07-08 01:33:00,
2013-07-07 21:38:00,78.3,75.5,30.01,ENE,68,0.0,0.0,91,0.00,CLR,,0.01,WeatherDisplay:10.37,2013-07-08 01:38:00,
2013-07-07 21:43:00,78.1,75.3,30.01,WSW,248,0.0,0.0,91,0.00,CLR,,0.01,WeatherDisplay:10.37,2013-07-08 01:43:00,
2013-07-07 21:48:00,78.1,75.3,30.01,West,270,0.0,0.0,91,0.00,CLR,,0.01,WeatherDisplay:10.37,2013-07-08 01:48:00,
2013-07-07 21:53:00,78.1,75.3,30.01,SW,225,0.0,0.0,91,0.00,CLR,,0.01,WeatherDisplay:10.37,2013-07-08 01:53:00,
2013-07-07 21:58:00,78.1,74.9,30.01,SE,135,0.0,0.0,90,0.00,CLR,,0.01,WeatherDisplay:10.37,2013-07-08 01:58:00,
2013-07-07 22:03:00,78.1,74.9,30.01,SSW,202,0.0,0.0,90,0.00,CLR,,0.01,WeatherDisplay:10.37,2013-07-08 02:03:00,
2013-07-07 22:08:00,78.1,74.9,30.01,WNW,292,0.0,0.0,90,0.00,CLR,,0.01,WeatherDisplay:10.37,2013-07-08 02:08:00,
2013-07-07 22:13:00,78.1,74.9,30.01,NNE,22,0.0,0.0,90,0.00,CLR,,0.01,WeatherDisplay:10.37,2013-07-08 02:13:00,
2013-07-07 22:18:00,78.1,74.6,30.00,NNE,22,0.0,0.0,89,0.00,CLR,,0.01,WeatherDisplay:10.37,2013-07-08 02:18:00,
2013-07-07 22:23:00,78.1,74.6,30.00,ENE,68,0.0,0.0,89,0.00,CLR,,0.01,WeatherDisplay:10.37,2013-07-08 02:23:00,
2013-07-07 22:28:00,78.1,74.6,29.97,WNW,292,0.0,0.0,89,0.00,CLR,,0.01,WeatherDisplay:10.37,2013-07-08 02:28:00,
2013-07-07 22:33:00,78.1,74.9,29.97,NNW,338,0.0,0.0,90,0.00,CLR,,0.01,WeatherDisplay:10.37,2013-07-08 02:33:00,
2013-07-07 22:38:00,78.1,74.9,29.97,North,360,0.0,0.0,90,0.00,CLR,,0.01,WeatherDisplay:10.37,2013-07-08 02:38:00,
2013-07-07 22:43:00,78.1,75.3,29.97,SSW,202,0.0,0.0,91,0.00,CLR,,0.01,WeatherDisplay:10.37,2013-07-08 02:43:00,
2013-07-07 22:48:00,77.7,74.9,29.97,NE,45,0.0,0.0,91,0.00,CLR,,0.01,WeatherDisplay:10.37,2013-07-08 02:48:00,
2013-07-07 22:53:00,77.7,74.9,29.98,SSW,202,0.0,0.0,91,0.00,CLR,,0.01,WeatherDisplay:10.37,2013-07-08 02:53:00,
2013-07-07 22:58:00,77.5,74.7,29.98,WSW,248,0.0,0.0,91,0.00,CLR,,0.01,WeatherDisplay:10.37,2013-07-08 02:58:00,
2013-07-07 23:03:00,77.4,73.9,30.00,SW,225,0.0,0.0,89,0.00,CLR,,0.01,WeatherDisplay:10.37,2013-07-08 03:03:00,
2013-07-07 23:08:00,77.4,73.6,30.00,NE,45,0.1,1.1,88,0.00,CLR,,0.01,WeatherDisplay:10.37,2013-07-08 03:08:00,
2013-07-07 23:13:00,77.4,73.2,29.99,SE,135,1.3,2.3,87,0.00,FEW,,0.01,WeatherDisplay:10.37,2013-07-08 03:13:00,
2013-07-07 23:18:00,77.4,73.2,29.99,West,270,0.0,0.0,87,0.00,FEW,,0.01,WeatherDisplay:10.37,2013-07-08 03:18:00,
2013-07-07 23:23:00,77.4,73.2,29.99,WSW,248,1.1,1.2,87,0.00,FEW,,0.01,WeatherDisplay:10.37,2013-07-08 03:23:00,
2013-07-07 23:28:00,77.4,73.2,30.00,SSW,202,1.4,2.3,87,0.00,FEW,,0.01,WeatherDisplay:10.37,2013-07-08 03:28:00,
2013-07-07 23:33:00,77.4,73.2,30.00,South,180,0.0,0.0,87,0.00,FEW,,0.01,WeatherDisplay:10.37,2013-07-08 03:33:00,
2013-07-07 23:38:00,77.4,73.2,30.01,East,90,0.0,0.0,87,0.00,FEW,,0.01,WeatherDisplay:10.37,2013-07-08 03:38:00,
2013-07-07 23:43:00,77.4,72.5,30.01,NE,45,0.0,1.2,85,0.00,FEW,,0.01,WeatherDisplay:10.37,2013-07-08 03:43:00,
2013-07-07 23:48:00,77.4,71.8,30.01,South,180,1.3,1.3,83,0.00,FEW,,0.01,WeatherDisplay:10.37,2013-07-08 03:48:00,
2013-07-07 23:53:00,77.2,70.9,30.01,East,90,0.0,1.2,81,0.00,FEW,,0.01,WeatherDisplay:10.37,2013-07-08 03:53:00,
2013-07-07 23:58:00,77.2,70.5,30.01,ESE,112,0.0,0.0,80,0.00,FEW,,0.01,WeatherDisplay:10.37,2013-07-08 03:58:00,